Flag Weather past 2 weeks in Durham, North Carolina, U.S.A.

Now
57 °F

Passing clouds.


Feels Like: 55 °F
Forecast: 30 / 54 °F
Wind: 10 mph from West

Location: Raleigh-Durham International Airport

Current Time: Nov 20, 2014 at 4:19:55 PM

Latest Report: Nov 20, 2014 at 3:51 PM


Visibility: 10 mi

Pressure: 30.02 "Hg

Humidity: 29%

Dew point: 25 °F

Location of DurhamLocation

Historic Weather in Durham — Graph

°F

Durham temperature yesterday

Maximum temperature yesterday: 42 °F (at 2:51 PM)
Minimum temperature yesterday: 20 °F (at 2:51 AM)
Average temperature yesterday: 32 °F

Past Weeks' High & Low Weather Summary

 TemperatureHumidityPressure
High76 °F (Nov 12, 1:51 PM)96% (Nov 11, 10:51 PM)30.47 "Hg (Nov 11, 10:51 PM)
Low20 °F (Nov 19, 2:51 AM)28% (Nov 15, 1:51 PM)29.59 "Hg (Nov 17, 3:51 PM)
Average47 °F64%30.08 "Hg
* Reported Nov 5 2:51 PM — Nov 20 2:51 PM, Durham, Weather by CustomWeather, © 2014

Note: Actual official high and low records may vary slightly from our data, if they occured in-between our weather recording intervals... More about our weather records

Advertising

Durham weather history for previous 24 hours

 ConditionsComfort  
Time TempWeatherWind HumidityBarometerVisibility
2:51 PM
Nov 20
58 °FPassing clouds.10 mph28%30.01 "Hg10 mi
1:51 PM58 °FPassing clouds.14 mph30%30.03 "Hg10 mi
12:51 PM56 °FScattered clouds.17 mph32%30.06 "Hg10 mi
11:51 AM53 °FPassing clouds.10 mph32%30.10 "Hg10 mi
10:51 AM48 °FPassing clouds.10 mph37%30.14 "Hg10 mi
9:51 AM43 °FSunny.10 mph42%30.16 "Hg10 mi
8:51 AM38 °FSunny.10 mph46%30.16 "Hg10 mi
7:51 AM31 °FSunny.7 mph61%30.15 "Hg10 mi
6:51 AM30 °FClear.6 mph61%30.14 "Hg10 mi
5:51 AM30 °FClear.5 mph59%30.15 "Hg10 mi
4:51 AM30 °FClear.3 mph59%30.15 "Hg10 mi
3:51 AM30 °FClear.8 mph61%30.17 "Hg10 mi
2:51 AM32 °FPassing clouds.7 mph54%30.19 "Hg10 mi
1:51 AM34 °FPassing clouds.8 mph50%30.21 "Hg10 mi
12:51 AM37 °FPartly cloudy.12 mph44%30.22 "Hg10 mi
11:51 PM
Nov 19
37 °FPassing clouds.9 mph42%30.22 "Hg10 mi
10:51 PM38 °FMostly cloudy.10 mph39%30.24 "Hg10 mi
9:51 PM38 °FMostly cloudy.14 mph37%30.24 "Hg10 mi
8:51 PM38 °FMostly cloudy.10 mph36%30.25 "Hg10 mi
7:51 PM38 °FPassing clouds.8 mph34%30.25 "Hg10 mi
6:51 PM37 °FPassing clouds.8 mph37%30.26 "Hg10 mi
5:51 PM38 °FPassing clouds.8 mph36%30.27 "Hg10 mi
4:51 PM40 °FPartly sunny.12 mph30%30.27 "Hg10 mi
Weather by CustomWeather, © 2014

See weather overviewHow to use our weather pages